[[{"header":{"parameterUnit":"m.s-1","parameterCategory":2,"la1":30.2992,"la2":30.254,"lo1":-89.0895,"lo2":-89.0443,"dy":0.0025,"dx":0.0025,"nx":19,"ny":19,"refTime":"2026-04-22T09:00:00:Z","depth":"0","parameterNumber":2,"parameterNumberName":"U-component_of_CURRENTS"},"data":[0,0,0,0.1557,0.1558,0.1572,0.1572,0.1564,0.1564,0,0,0,0,0,0,0,0,0,0,0,0.1547,0.1547,0.1557,0.1558,0.1572,0.1572,0.1564,0.1564,0,0,0,0,0,0,0,0,0,0,0,0.1547,0.1547,0.1548,0.1558,0.1572,0.1572,0.1564,0.1558,0,0,0,0,0,0,0,0,0,0,0.1546,0.1541,0.1547,0.1548,0.1559,0.1572,0.1572,0.1557,0.1558,0.1555,0,0.1562,0,0.1571,0.1564,0.1564,0,0,0,0.1547,0.154,0.1551,0.1548,0.1559,0.1572,0.1562,0.1558,0.1558,0.1556,0.1562,0.1562,0.157,0.1564,0.1564,0.1591,0.1591,0,0,0.1546,0.1541,0.1551,0.1552,0.1569,0.1562,0.1563,0.1558,0.1557,0.1562,0.1562,0.157,0.1564,0.1564,0.159,0.1591,0,0,0,0.1552,0.154,0.1551,0.1552,0.156,0.1563,0.1564,0.1557,0.1563,0.1562,0.157,0.1564,0.1564,0.159,0.159,0.1629,0,0,0,0.1551,0.1545,0.1551,0.1547,0.1561,0.1562,0.1562,0.1563,0.1563,0.157,0.1564,0.1564,0.159,0.159,0.1627,0.1648,0,0,0,0.1545,0.1544,0.1549,0.1547,0.1559,0.1562,0.1567,0.1563,0.1568,0.1564,0.1564,0.1589,0.159,0.1625,0.1645,0.1712,0,0,0,0.1534,0.1538,0.1549,0.1555,0.1559,0.1574,0.1567,0.1571,0.1568,0.1564,0.159,0.159,0.1625,0.1644,0.1709,0.171,0.1722,0,0,0.1531,0.1537,0.1541,0.1552,0.1567,0.1571,0.1591,0.1584,0.1579,0.1587,0.1587,0.1627,0.1645,0.1711,0.1749,0.176,0,0,0,0.1535,0.1537,0.1545,0.1556,0.1573,0.1597,0.1594,0.1605,0.162,0.1584,0.1631,0.1641,0.1681,0.1676,0.1685,0.1705,0.1593,0.1593,0.1593,0.1509,0.1527,0.1534,0.1558,0.1576,0.1611,0.1637,0.1653,0.1638,0.1657,0.1674,0.1752,0.1746,0.1753,0.1773,0.1674,0.1674,0.1674,0.1674,0.1496,0.1492,0.1529,0.1541,0.1581,0.1606,0.1672,0.1687,0.1754,0.1714,0.1752,0.1718,0.1764,0.1783,0.1676,0.1676,0.1676,0.1676,0.1675,0.1459,0.146,0.1477,0.1506,0.1551,0.1607,0.1677,0.1746,0.1788,0.1832,0.1848,0.1847,0.1864,0.186,0.186,0.1861,0.1861,0.1861,0.1862,0.1404,0.1426,0.1428,0.1471,0.1491,0.1561,0.1689,0.1753,0.1865,0.1899,0.1899,0.1894,0.181,0.1803,0.1868,0.1867,0.1866,0.1865,0.1865,0.1344,0.1359,0.1362,0.1374,0.1427,0.1464,0.1614,0.1784,0.1884,0.1944,0.2003,0.1943,0.194,0.1931,0.1928,0.2022,0.2022,0.2022,0.2022,0.1295,0.1307,0.13,0.1307,0.1336,0.1414,0.1491,0.1665,0.1915,0.2019,0.208,0.2027,0.202,0.2018,0.2008,0.2005,0.2115,0.2116,0.2116,0.1255,0.1266,0.124,0.1258,0.1284,0.1336,0.139,0.1523,0.1892,0.2122,0.2115,0.2111,0.2032,0.2018,0.2008,0.1992,0.1984,0,0]},{"header":{"parameterUnit":"m.s-1","parameterCategory":2,"la1":30.2992,"la2":30.254,"lo1":-89.0895,"lo2":-89.0443,"dy":0.0025,"dx":0.0025,"nx":19,"ny":19,"refTime":"2026-04-22T09:00:00:Z","depth":"0","parameterNumber":3,"parameterNumberName":"V-component_of_CURRENTS"},"data":[0,0,0,-0.0184,-0.0184,-0.0231,-0.0232,-0.0286,-0.0287,0,0,0,0,0,0,0,0,0,0,0,-0.0166,-0.0166,-0.0184,-0.0185,-0.0231,-0.0232,-0.0286,-0.0287,0,0,0,0,0,0,0,0,0,0,0,-0.0166,-0.0166,-0.0166,-0.0185,-0.0231,-0.0232,-0.0286,-0.0254,0,0,0,0,0,0,0,0,0,0,-0.021,-0.0191,-0.0166,-0.0166,-0.0185,-0.0231,-0.0232,-0.0252,-0.0256,-0.0261,0,-0.0262,0,-0.0273,-0.0289,-0.0289,0,0,0,-0.0192,-0.0188,-0.02,-0.0166,-0.0185,-0.0231,-0.0213,-0.0255,-0.0258,-0.0265,-0.0263,-0.0265,-0.0274,-0.029,-0.029,-0.0305,-0.0305,0,0,-0.019,-0.0178,-0.0197,-0.0202,-0.0189,-0.0211,-0.0214,-0.0257,-0.0258,-0.0263,-0.0266,-0.0275,-0.029,-0.029,-0.0305,-0.0305,0,0,0,-0.0177,-0.0176,-0.0187,-0.0199,-0.0207,-0.0212,-0.0216,-0.0256,-0.0259,-0.0267,-0.0275,-0.029,-0.0291,-0.0306,-0.0305,-0.0244,0,0,0,-0.0176,-0.0168,-0.0185,-0.0179,-0.0206,-0.0233,-0.0214,-0.0256,-0.0262,-0.0275,-0.029,-0.0291,-0.0306,-0.0305,-0.0246,-0.0193,0,0,0,-0.0165,-0.0167,-0.0169,-0.0178,-0.0195,-0.0232,-0.0238,-0.0258,-0.0266,-0.029,-0.0291,-0.0306,-0.0305,-0.0248,-0.0197,-0.0141,0,0,0,-0.0155,-0.0141,-0.0169,-0.0158,-0.0194,-0.0206,-0.0238,-0.0256,-0.0273,-0.029,-0.0306,-0.0305,-0.0248,-0.02,-0.0144,-0.0024,-0.0,0,0,-0.0128,-0.0137,-0.0131,-0.0157,-0.0148,-0.02,-0.0195,-0.0234,-0.027,-0.0293,-0.0294,-0.0246,-0.0198,-0.0141,-0.0005,0.0019,0,0,0,-0.0116,-0.0105,-0.0111,-0.0114,-0.0139,-0.0145,-0.0196,-0.0217,-0.0243,-0.0277,-0.0256,-0.0227,-0.0193,-0.0129,-0.011,-0.0171,-0.0304,-0.0304,-0.0304,-0.0043,-0.0062,-0.0045,-0.0065,-0.0075,-0.0112,-0.0118,-0.0156,-0.021,-0.0215,-0.0186,-0.011,-0.0042,-0.0027,-0.0092,-0.0211,-0.0211,-0.021,-0.021,0.002,0.0034,0.0012,0.0022,0.0003,0.0002,-0.0039,-0.0072,-0.0077,-0.0142,-0.0113,-0.0078,-0.0002,-0.0079,-0.0207,-0.0207,-0.0208,-0.0208,-0.0208,0.0076,0.008,0.008,0.0096,0.0114,0.0082,0.0133,0.0078,0.0006,0.0026,0.0092,0.0092,0.0035,0.0034,0.0035,0.0035,0.0036,0.0036,0.0036,0.0133,0.0132,0.016,0.0173,0.0195,0.0234,0.0234,0.0252,0.0246,0.0192,0.0193,0.0064,-0.0035,-0.0033,0.0044,0.0042,0.0041,0.0041,0.004,0.0196,0.0191,0.024,0.0265,0.0325,0.0426,0.0423,0.0512,0.0499,0.0527,0.0316,0.028,0.0281,0.0266,0.0275,0.0427,0.0427,0.0427,0.0427,0.024,0.0239,0.0306,0.036,0.0439,0.051,0.0699,0.075,0.0634,0.0546,0.0436,0.0384,0.0371,0.0371,0.0354,0.0361,0.0531,0.0531,0.0531,0.0282,0.0296,0.0353,0.0396,0.0483,0.0625,0.0839,0.0961,0.074,0.0521,0.0328,0.0324,0.0224,0.0208,0.0184,0.0165,0.0168,0,0]}],[{"header":{"parameterUnit":"m.s-1","parameterCategory":2,"la1":30.2992,"la2":30.254,"lo1":-89.0895,"lo2":-89.0443,"dy":0.0025,"dx":0.0025,"nx":19,"ny":19,"refTime":"2026-04-22T09:00:00:Z","depth":"2","parameterNumber":2,"parameterNumberName":"U-component_of_CURRENTS"},"data":[0,0,0,0.1621,0.1621,0.1636,0.1636,0.1633,0.1633,0,0,0,0,0,0,0,0,0,0,0,0.161,0.161,0.1621,0.1621,0.1636,0.1636,0.1633,0.1633,0,0,0,0,0,0,0,0,0,0,0,0.161,0.161,0.161,0.1621,0.1636,0.1636,0.1633,0.1625,0,0,0,0,0,0,0,0,0,0,0.1612,0.1606,0.161,0.161,0.1622,0.1636,0.1636,0.1624,0.1625,0.1624,0,0.1631,0,0.1639,0.1634,0.1634,0,0,0,0.161,0.1605,0.1616,0.161,0.1622,0.1636,0.1626,0.1625,0.1626,0.1625,0.1631,0.1631,0.1639,0.1634,0.1634,0.1664,0.1665,0,0,0.1609,0.1605,0.1615,0.1617,0.1632,0.1626,0.1627,0.1626,0.1625,0.1631,0.1632,0.1639,0.1634,0.1634,0.1664,0.1664,0,0,0,0.1615,0.1604,0.1614,0.1616,0.1625,0.1626,0.1628,0.1625,0.163,0.1632,0.1639,0.1634,0.1634,0.1664,0.1664,0.17,0,0,0,0.1614,0.1608,0.1614,0.161,0.1625,0.1628,0.1626,0.163,0.1631,0.1639,0.1634,0.1634,0.1663,0.1664,0.1698,0.1719,0,0,0,0.1608,0.1607,0.1612,0.161,0.1623,0.1628,0.1633,0.163,0.1636,0.1634,0.1634,0.1663,0.1664,0.1696,0.1716,0.178,0,0,0,0.1597,0.1601,0.1612,0.1619,0.1623,0.164,0.1633,0.1638,0.1637,0.1634,0.1663,0.1664,0.1696,0.1714,0.1777,0.1769,0.1779,0,0,0.1595,0.16,0.1605,0.1616,0.1631,0.1636,0.1658,0.1652,0.1648,0.166,0.166,0.1698,0.1716,0.1779,0.1809,0.1819,0,0,0,0.1599,0.1601,0.1609,0.1621,0.1638,0.1663,0.1662,0.1674,0.1691,0.1654,0.1703,0.1713,0.1752,0.1741,0.1749,0.1668,0.1667,0.1667,0.1667,0.1572,0.159,0.1598,0.1623,0.1642,0.1678,0.1706,0.1723,0.1709,0.1728,0.1745,0.1821,0.1809,0.1815,0.1745,0.1745,0.1745,0.1746,0.1746,0.1557,0.1553,0.1592,0.1604,0.1646,0.1671,0.174,0.1755,0.1822,0.1784,0.1821,0.1782,0.1825,0.1749,0.1748,0.1748,0.1747,0.1747,0.1747,0.1518,0.1519,0.1537,0.1566,0.1612,0.167,0.174,0.181,0.1854,0.1897,0.1906,0.1905,0.1857,0.1923,0.1924,0.1924,0.1924,0.1925,0.1925,0.146,0.1483,0.1485,0.1529,0.1549,0.1619,0.1748,0.1812,0.192,0.1954,0.1954,0.1881,0.1875,0.1868,0.1931,0.193,0.1929,0.1928,0.1928,0.1398,0.1413,0.1416,0.1428,0.1483,0.1525,0.1669,0.1833,0.1932,0.1988,0.1996,0.1992,0.1988,0.1981,0.1977,0.2064,0.2064,0.2064,0.2064,0.1347,0.1359,0.1353,0.136,0.1391,0.1476,0.1548,0.1674,0.1859,0.192,0.1925,0.1854,0.1854,0.1837,0.1833,0.1823,0.187,0.187,0.1869,0.1307,0.1317,0.1292,0.1311,0.1339,0.1403,0.1449,0.1485,0.1657,0.1855,0.182,0.2064,0.1973,0.1967,0.1949,0.194,0.1927,0,0]},{"header":{"parameterUnit":"m.s-1","parameterCategory":2,"la1":30.2992,"la2":30.254,"lo1":-89.0895,"lo2":-89.0443,"dy":0.0025,"dx":0.0025,"nx":19,"ny":19,"refTime":"2026-04-22T09:00:00:Z","depth":"2","parameterNumber":3,"parameterNumberName":"V-component_of_CURRENTS"},"data":[0,0,0,-0.0209,-0.021,-0.0259,-0.0259,-0.0316,-0.0316,0,0,0,0,0,0,0,0,0,0,0,-0.019,-0.019,-0.0209,-0.021,-0.0259,-0.0259,-0.0316,-0.0316,0,0,0,0,0,0,0,0,0,0,0,-0.019,-0.019,-0.019,-0.021,-0.0259,-0.0259,-0.0316,-0.0282,0,0,0,0,0,0,0,0,0,0,-0.0236,-0.0217,-0.019,-0.019,-0.021,-0.0259,-0.0259,-0.0281,-0.0284,-0.0289,0,-0.0291,0,-0.0302,-0.0319,-0.0319,0,0,0,-0.0218,-0.0214,-0.0226,-0.019,-0.0211,-0.0259,-0.0239,-0.0283,-0.0287,-0.0294,-0.0291,-0.0294,-0.0303,-0.0319,-0.032,-0.0334,-0.0334,0,0,-0.0216,-0.0203,-0.0223,-0.0228,-0.0215,-0.0238,-0.0241,-0.0285,-0.0287,-0.0292,-0.0295,-0.0304,-0.032,-0.032,-0.0334,-0.0334,0,0,0,-0.0202,-0.0201,-0.0212,-0.0225,-0.0233,-0.0239,-0.0242,-0.0285,-0.0288,-0.0296,-0.0304,-0.032,-0.0321,-0.0334,-0.0334,-0.0274,0,0,0,-0.0201,-0.0193,-0.0211,-0.0205,-0.0232,-0.0261,-0.0241,-0.0285,-0.029,-0.0304,-0.032,-0.0321,-0.0335,-0.0334,-0.0276,-0.0223,0,0,0,-0.019,-0.0192,-0.0195,-0.0204,-0.0221,-0.026,-0.0266,-0.0286,-0.0295,-0.0319,-0.0321,-0.0335,-0.0334,-0.0278,-0.0228,-0.0172,0,0,0,-0.018,-0.0166,-0.0194,-0.0184,-0.0221,-0.0233,-0.0266,-0.0284,-0.0302,-0.032,-0.0335,-0.0334,-0.0278,-0.023,-0.0175,-0.0078,-0.0056,0,0,-0.0153,-0.0163,-0.0157,-0.0183,-0.0175,-0.0227,-0.0222,-0.0262,-0.0298,-0.0321,-0.0322,-0.0275,-0.0228,-0.0173,-0.0055,-0.0034,0,0,0,-0.0142,-0.0132,-0.0138,-0.0141,-0.0166,-0.0173,-0.0224,-0.0246,-0.0271,-0.0306,-0.0284,-0.0256,-0.0223,-0.0171,-0.0155,-0.0332,-0.0332,-0.0332,-0.0333,-0.0071,-0.009,-0.0073,-0.0093,-0.0103,-0.014,-0.0147,-0.0184,-0.0238,-0.0242,-0.0215,-0.0139,-0.0084,-0.007,-0.0238,-0.0238,-0.0238,-0.0237,-0.0237,-0.0009,0.0004,-0.0017,-0.0007,-0.0026,-0.0027,-0.0067,-0.01,-0.0105,-0.017,-0.0142,-0.012,-0.0048,-0.0233,-0.0233,-0.0234,-0.0235,-0.0235,-0.0235,0.0046,0.0049,0.0049,0.0065,0.0083,0.0052,0.0101,0.0048,-0.0023,-0.0004,0.0048,0.0047,-0.0078,0.0004,0.0004,0.0005,0.0005,0.0006,0.0006,0.0101,0.01,0.0127,0.014,0.0162,0.02,0.0201,0.0216,0.0202,0.0144,0.0145,-0.0057,-0.0065,-0.0064,0.0013,0.0012,0.0011,0.001,0.001,0.0161,0.0157,0.0204,0.0228,0.0287,0.0372,0.0378,0.0452,0.044,0.046,0.0229,0.0221,0.022,0.0206,0.0214,0.0358,0.0358,0.0358,0.0358,0.0203,0.0202,0.0267,0.0319,0.0396,0.0449,0.057,0.0542,0.0482,0.0389,0.0387,0.0333,0.032,0.0319,0.0302,0.0308,0.0478,0.0477,0.0477,0.0242,0.0256,0.031,0.0352,0.0437,0.0545,0.063,0.0562,0.0463,0.0472,0.0308,0.0385,0.0298,0.0281,0.0267,0.0245,0.0251,0,0]}],[{"header":{"parameterUnit":"m.s-1","parameterCategory":2,"la1":30.2992,"la2":30.254,"lo1":-89.0895,"lo2":-89.0443,"dy":0.0025,"dx":0.0025,"nx":19,"ny":19,"refTime":"2026-04-22T09:00:00:Z","depth":"4","parameterNumber":2,"parameterNumberName":"U-component_of_CURRENTS"},"data":[0,0,0,0.1057,0.1059,0.1173,0.1173,0.1285,0.1285,0,0,0,0,0,0,0,0,0,0,0,0.1013,0.1014,0.1057,0.106,0.1173,0.1173,0.1284,0.1286,0,0,0,0,0,0,0,0,0,0,0,0.1013,0.1014,0.1015,0.106,0.1173,0.1173,0.1284,0.1206,0,0,0,0,0,0,0,0,0,0,0.1099,0.1068,0.1014,0.1015,0.1061,0.1173,0.1173,0.1202,0.1211,0.1225,0,0.1248,0,0.1274,0.1293,0.1293,0,0,0,0.1054,0.1061,0.1092,0.1015,0.1062,0.1172,0.112,0.1207,0.1217,0.1236,0.1249,0.1254,0.1276,0.1293,0.1294,0.1398,0.1399,0,0,0.1048,0.1033,0.1085,0.1098,0.1098,0.1117,0.1124,0.1213,0.1225,0.125,0.1257,0.1278,0.1294,0.1295,0.1398,0.1398,0,0,0,0.1034,0.1029,0.1058,0.1093,0.1119,0.112,0.1128,0.1221,0.1231,0.1259,0.1279,0.1295,0.1296,0.1398,0.1398,0.1429,0,0,0,0.103,0.1021,0.1055,0.1047,0.1118,0.1177,0.1134,0.1224,0.1236,0.1278,0.1295,0.1297,0.1397,0.1398,0.1428,0.1417,0,0,0,0.1007,0.1019,0.1034,0.1046,0.1099,0.1176,0.1192,0.1227,0.1248,0.1293,0.1297,0.1397,0.1398,0.1426,0.1415,0.1479,0,0,0,0.0985,0.1006,0.1033,0.1068,0.1098,0.117,0.1191,0.1263,0.1305,0.1295,0.1397,0.1398,0.1426,0.1414,0.1477,0.1297,0,0,0,0.0995,0.1007,0.1027,0.1054,0.1108,0.1154,0.122,0.129,0.1318,0.1364,0.1367,0.1428,0.1415,0.1478,0.1346,0,0,0,0,0.1019,0.1037,0.1056,0.1101,0.1152,0.1211,0.1281,0.1321,0.1395,0.1348,0.1436,0.1426,0.1466,0.1356,0.1402,0.1402,0.1402,0.1402,0.1402,0.1014,0.1045,0.1083,0.1132,0.1179,0.1266,0.1315,0.1381,0.1412,0.1458,0.1459,0.1531,0.1416,0.1479,0.1479,0.1479,0.1479,0.1479,0.1479,0.1028,0.105,0.1102,0.1154,0.1216,0.1284,0.1374,0.1416,0.15,0.1499,0.1538,0.1402,0.1483,0.1482,0.1482,0.1481,0.1481,0.1481,0.1481,0.1018,0.1031,0.108,0.1152,0.1231,0.1309,0.1378,0.1454,0.1525,0.1553,0.1484,0.1561,0.1553,0.1609,0.1609,0.1609,0.1609,0.161,0.161,0.0981,0.1026,0.107,0.1151,0.12,0.1282,0.1403,0.1449,0.154,0.1486,0.1585,0.1575,0.1571,0.1561,0.1613,0.1613,0.1612,0.1612,0.1612,0.0958,0.0987,0.1035,0.1084,0.1177,0.1214,0.135,0.1403,0.1458,0.1457,0.146,0.1467,0.1442,0.1442,0.1426,0.1441,0.1438,0.1436,0,0.0932,0.0951,0.1003,0.1047,0.1087,0.1169,0.1183,0.126,0.1339,0.1295,0.1476,0.1477,0.148,0.1451,0.1447,0.1426,0,0,0,0.0914,0.0933,0.095,0.1002,0.1034,0.1082,0.1178,0.1168,0.1317,0.1311,0.1384,0.1397,0.1524,0.1625,0.1604,0.1599,0.1582,0,0]},{"header":{"parameterUnit":"m.s-1","parameterCategory":2,"la1":30.2992,"la2":30.254,"lo1":-89.0895,"lo2":-89.0443,"dy":0.0025,"dx":0.0025,"nx":19,"ny":19,"refTime":"2026-04-22T09:00:00:Z","depth":"4","parameterNumber":3,"parameterNumberName":"V-component_of_CURRENTS"},"data":[0,0,0,0.0141,0.014,0.0085,0.0084,0.0045,0.0044,0,0,0,0,0,0,0,0,0,0,0,0.016,0.0159,0.0141,0.0139,0.0085,0.0084,0.0045,0.0044,0,0,0,0,0,0,0,0,0,0,0,0.016,0.016,0.0159,0.0139,0.0085,0.0084,0.0045,0.0078,0,0,0,0,0,0,0,0,0,0,0.0127,0.0151,0.016,0.0159,0.0139,0.0085,0.0084,0.0079,0.0076,0.0079,0,0.0069,0,0.0057,0.0043,0.0042,0,0,0,0.0137,0.0154,0.013,0.0159,0.0138,0.0085,0.0109,0.0077,0.0074,0.0074,0.0069,0.0067,0.0056,0.0042,0.0042,0.0064,0.0064,0,0,0.0141,0.0159,0.0132,0.0127,0.0124,0.0111,0.0107,0.0075,0.0077,0.0068,0.0066,0.0056,0.0042,0.0042,0.0063,0.0064,0,0,0,0.015,0.0161,0.0137,0.0129,0.0117,0.0109,0.0105,0.0078,0.0068,0.0065,0.0055,0.0042,0.0042,0.0063,0.0063,0.0077,0,0,0,0.0152,0.0167,0.0139,0.0151,0.0118,0.0096,0.011,0.007,0.0066,0.0056,0.0042,0.0041,0.0062,0.0063,0.0076,0.0089,0,0,0,0.0162,0.0168,0.0159,0.0152,0.0127,0.0096,0.0083,0.0068,0.006,0.0042,0.0041,0.0062,0.0063,0.0075,0.0087,0.0082,0,0,0,0.0186,0.017,0.016,0.015,0.0128,0.0112,0.0083,0.0067,0.0054,0.0042,0.0062,0.0063,0.0074,0.0086,0.0081,0.0087,0,0,0,0.0176,0.017,0.0165,0.0154,0.0141,0.0119,0.0122,0.0088,0.0074,0.0074,0.0074,0.0076,0.0087,0.0082,0.0148,0,0,0,0,0.0169,0.0161,0.0159,0.015,0.014,0.0139,0.0111,0.0106,0.0096,0.007,0.0094,0.0101,0.0096,0.0098,0.0069,0.0068,0.0068,0.0068,0.0068,0.0159,0.0159,0.0157,0.0154,0.0155,0.0151,0.0152,0.0144,0.0122,0.0127,0.0124,0.0149,0.0154,0.0135,0.0135,0.0135,0.0135,0.0135,0.0135,0.0145,0.0145,0.0159,0.0156,0.0169,0.0176,0.0184,0.0173,0.0174,0.016,0.0154,0.0129,0.0137,0.0137,0.0136,0.0136,0.0136,0.0136,0.0136,0.0136,0.0139,0.0142,0.0158,0.0179,0.0192,0.0223,0.0216,0.0189,0.0192,0.0176,0.0159,0.0142,0.0177,0.0177,0.0178,0.0178,0.0178,0.0178,0.0127,0.0133,0.0145,0.0164,0.0186,0.0218,0.0242,0.0244,0.0218,0.0203,0.0191,0.0163,0.0162,0.0145,0.0178,0.0178,0.0178,0.0178,0.0178,0.0115,0.0128,0.0147,0.0168,0.0223,0.0251,0.0273,0.0267,0.0259,0.0233,0.0203,0.0201,0.0194,0.0191,0.0175,0.0218,0.0218,0.0219,0,0.0115,0.012,0.0156,0.0197,0.0245,0.0274,0.0292,0.0289,0.0245,0.0237,0.0239,0.0206,0.0204,0.0195,0.0194,0.0175,0,0,0,0.0118,0.013,0.0154,0.0196,0.0253,0.0281,0.0297,0.0287,0.0256,0.0252,0.0223,0.0222,0.0219,0.0181,0.0165,0.0163,0.0135,0,0]}]]